SCP
0 0 0 0 0 0 0 0 0 0 0 0 0 0 0 0 0 0 0 0 0 0 0 0 0 0 0 0 0 0 0 0 0 0 0 0 0 0 0 0 0 0 0 0 0 0 0
0 0 0 0 0 0 0 0 0 0 0 0 0 0 0 0 0 0 -0 0 0 0 0 0 0 0 0 0 0 0 0 0 0 0 0 0 0 0 0 0 0 0 0 0 0 0 0
0 0 0 0 0 0 0 0 0 0 0 0 0 0 0 -0 -0 0 -0 -0 0 0 0 0 0 -0 0 -0 0 0 0 0 0 0 0 0 0 0 0 0 0 0 0 0 0 0 0
0 0 0 0 0 0 0 0 0 0 0 0 0 0 0 -0 -0 0 0 -0 0 0 0 0 -0 0 0 0 0 -0 0 -0 0 -0 0 0 0 0 0 0 0 0 0 0 0 0 0
0 0 0 0 0 0 0 0 0 0 0 0 0 0 0 0 -0 0 0 -0 0 0 0 0 -0 0 0 0 -0 -0 0 0 -0 -0 0 0 0 0 0 0 0 0 0 0 0 0 0
0 0 0 0 0 0 0 0 0 0 0 0 0 0 0 0 -0 -0 0 0 0 -0 0 0 0 0 0 0 0 -0 0 -0 -0 0 0 0 0 0 0 0 0 0 0 0 0 0 -0
0 0 0 0 0 0 0 0 0 0 0 0 0 0 0 0 -0 -0 0 0 0 0 0 0 0 0 0 0 0 0 0 0 -0 0 -0 0 0 0 0 0 0 0 0 0 0 0 -0
0 0 0 0 0 0 0 0 0 0 0 0 0 0 0 0 -0 -0 0 -0 0 0 0 -0 0 0 0 0 0 0 0 0 -0 -0 0 0 0 0 0 0 0 0 0 0 0 0 0
0 0 0 0 0 0 0 0 0 0 0 0 0 0 0 -0 0 0 0 -0 0 0 0 0 0 0 0 0 0 -0 0 0 0 -0 -0 0 -0 0 0 0 0 0 0 0 0 0 -0
0 0 0 0 0 0 0 0 0 0 0 0 0 0 0 -0 0 0 0 -0 0 0 0 0 0 0 0 -0 0 0 -0 0 0 -0 0 0 0 0 0 0 0 0 0 0 0 0 0
0 0 0 0 0 0 0 0 0 0 0 0 0 0 0 0 -0 -0 0 0 0 0 0 0 0 0 0 -0 0 0 0 0 -0 0 0 -0 0 0 0 0 0 0 -0 0 0 0 0
0 0 0 0 0 0 0 0 0 0 -0 0 0 0 -0 0 0 -0 0 0 0 0 0 0 0 0 0 -0 0 0 -0 0 0 0 0 -0 0 0 0 0 0 0 0 0 0 0 0
0 0 0 0 0 0 0 0 0 0 0 0 0 0 0 0 0 -0 0 0 0 0 0 0 0 0 0 -0 0 0 -0 -0 -0 -0 0 0 0 0 0 0 0 0 0 0 0 0 0
0 0 0 0 0 0 0 0 0 0 0 0 0 0 0 0 0 0 0 0 0 0 0 0 0 0 0 -0 0 0 -0 -0 0 -0 0 0 0 0 0 0 0 0 0 0 0 0 0
0 0 0 0 0 0 0 0 0 0 0 0 0 0 0 0 -0 0 0 0 0 0 0 0 -0 -0 -0 0 0 0 0 -0 -0 -0 0 0 0 0 -0 0 -0 0 0 0 0 0 0
0 0 0 0 0 0 0 0 0 -0 -0 0 0 0 0 -0 -0 0 0 0 0 0 0 0 0 -0 -0 -0 0 0 0 -0 0 0 0 0 0 0 0 0 0 0 0 0 0 0 0
0 0 0 0 0 0 0 0 0 -0 -0 0 0 0 0 0 0 0 0 -0 0 -0 -0 0 0 0 0 -0 0 -0 0 0 0 0 0 0 0 0 0 0 0 0 0 0 0 0 0
0 0 0 0 0 0 0 0 0 0 -0 0 0 0 0 0 0 0 -0 0 0 -0 -0 0 0 0 0 -0 -0 -0 0 0 0 0 0 0 0 0 0 -0 0 0 0 0 0 0 0
0 0 0 0 0 0 0 0 0 0 0 0 0 0 0 0 0 0 -0 0 0 0 0 0 0 0 0 0 0 0 0 0 0 0 0 0 0 0 0 0 0 0 0 0 0 0 0
0 0 0 0 0 0 0 0 0 0 0 0 0 0 0 0 0 0 -0 0 -0 -0 0 0 0 0 0 0 0 0 0 0 0 0 0 0 0 0 0 0 0 0 0 0 0 0 0
0 0 0 0 0 0 0 0 0 0 0 0 0 0 0 0 -0 0 0 0 -0 0 0 0 0 0 0 0 0 0 0 0 0 0 0 0 0 0 0 0 0 0 0 0 0 0 0
0 0 0 0 0 0 0 0 0 0 0 0 0 0 0 0 -0 0 0 0 -0 0 0 0 0 0 0 -0 -0 0 0 0 0 0 0 0 0 0 0 0 0 0 0 0 0 0 0
0 0 0 0 0 0 0 0 0 0 0 0 0 0 0 0 -0 -0 0 0 -0 0 0 0 0 0 0 0 0 0 0 0 0 0 0 0 0 0 0 0 0 0 0 0 0 0 0
0 0 0 0 0 0 0 0 0 0 0 0 0 0 0 0 0 0 0 -0 0 0 0 0 0 0 0 0 0 0 0 0 0 0 0 0 0 0 0 0 0 0 0 0 0 0 0
0 0 0 0 0 0 0 0 0 0 0 0 0 0 0 0 0 0 0 0 -0 0 0 0 0 0 0 0 0 0 0 0 0 0 0 0 0 0 0 0 0 0 0 0 0 0 0
0 0 0 0 0 0 0 0 0 0 0 0 0 0 0 0 0 0 0 0 0 0 0 0 0 0 0 0 0 0 0 0 0 0 0 0 0 0 0 0 0 0 0 0 0 0 0
0 0 0 0 0 0 0 0 0 -0 0 0 0 0 0 0 0 0 0 0 0 0 0 0 0 0 0 0 0 0 0 0 0 0 0 0 0 0 0 0 0 0 0 0 0 0 0
0 0 0 0 0 0 -0 -0 0 -0 -0 0 0 0 0 0 0 0 0 0 0 0 0 0 0 0 0 0 0 0 0 0 0 0 0 0 0 0 0 0 0 0 0 0 0 0 0
0 0 0 0 0 0 -0 -0 -0 -0 0 0 0 0 0 0 0 0 0 0 0 0 0 0 0 0 0 0 0 0 0 0 0 0 0 0 0 0 0 0 0 0 0 0 0 0 0
Wind_Speed_500mb
27 26 28 29 32 37 39 37 39 43 46 44 36 32 32 29 28 26 25 24 26 26 25 24 20 21 9 19 42 24 26 17 30 62 61 57 56 72 55 54 60 51 32 59 62 22 33
23 25 28 31 33 33 36 37 40 46 43 37 35 36 33 31 29 27 26 25 26 26 27 27 21 19 15 34 16 18 18 24 41 66 62 74 56 62 61 60 41 39 41 38 43 45 25
28 28 28 29 29 32 36 39 41 42 38 36 34 36 36 32 30 28 28 28 26 27 30 27 21 12 29 49 11 13 7 24 44 65 63 69 62 54 60 51 54 51 41 44 42 35 27
33 33 33 32 32 34 35 37 37 38 36 36 37 36 34 35 32 30 28 29 26 28 31 22 15 12 23 10 25 25 24 24 40 50 54 56 66 59 69 38 59 39 32 36 41 37 20
36 37 36 36 36 37 38 38 38 38 37 37 38 36 37 34 33 31 25 26 25 26 19 15 9 13 21 11 30 24 25 33 47 47 53 44 59 46 66 37 34 38 40 48 33 36 19
40 41 41 40 40 41 42 40 39 38 38 39 41 41 40 35 35 30 21 19 15 13 15 14 11 12 30 33 30 36 27 31 54 50 45 42 36 38 37 35 38 42 46 37 43 31 30
39 41 43 42 43 42 42 40 39 39 39 40 41 42 43 40 31 33 24 11 7 9 29 27 27 22 19 16 32 35 32 43 52 55 39 46 32 45 58 52 46 47 46 49 26 32 37
41 42 42 40 42 42 42 42 40 43 41 37 42 42 46 36 42 39 26 23 23 12 24 53 44 35 18 24 33 33 49 43 49 44 43 36 43 43 40 37 43 44 24 41 13 24 33
45 44 44 45 46 45 43 44 44 43 44 39 42 42 43 48 45 39 36 42 26 16 18 30 52 46 27 31 37 44 54 40 45 47 48 38 44 40 40 43 40 37 31 30 29 37 38
47 46 45 45 45 46 46 48 48 45 46 42 44 45 42 50 25 12 25 26 39 8 12 28 39 27 43 36 35 51 53 33 31 45 48 37 38 48 40 44 39 31 28 39 26 29 27
49 48 47 48 46 45 46 46 50 50 50 47 46 46 50 42 25 18 11 9 19 16 13 46 44 32 44 50 48 51 52 37 39 34 31 34 37 46 39 37 34 40 40 30 22 28 27
52 50 48 49 50 50 45 45 50 53 52 53 50 51 56 32 23 17 11 22 24 13 13 24 30 40 45 52 44 55 56 47 43 36 37 39 41 28 34 38 39 44 10 24 30 29 28
51 50 48 50 51 53 47 47 49 52 52 58 56 54 46 28 6 33 27 29 11 14 16 33 42 48 43 40 40 47 47 41 35 34 33 26 26 30 33 36 29 33 26 19 20 21 23
53 53 50 48 51 55 52 53 52 50 56 58 57 35 23 17 25 35 35 14 17 14 16 23 38 45 42 49 40 47 45 39 40 38 31 28 32 40 22 29 28 41 37 25 21 26 30
57 54 48 49 54 54 54 57 53 59 63 62 51 14 12 30 33 43 25 9 7 9 4 12 37 45 40 46 37 41 46 43 41 37 28 32 31 32 34 34 35 31 37 38 21 19 8
59 55 47 48 51 49 51 56 60 65 67 59 48 20 23 38 42 35 18 8 8 10 11 20 27 42 46 45 37 48 45 47 45 37 37 21 18 30 22 25 26 24 26 18 15 17 22
58 56 50 46 49 50 50 55 59 66 69 46 23 12 15 31 37 32 18 13 17 9 12 6 21 25 33 40 35 43 38 30 39 35 27 20 20 21 28 28 29 24 22 22 21 21 20
55 57 52 42 46 48 52 53 61 68 75 43 18 8 19 41 23 27 25 14 9 9 17 9 13 29 27 39 37 35 32 19 22 27 28 18 18 25 35 33 10 24 37 28 17 24 16
54 58 55 48 45 51 52 54 59 61 70 59 22 16 13 40 16 24 24 12 5 5 13 11 10 22 39 31 25 25 22 12 16 17 30 15 13 18 11 17 18 21 19 12 10 3 19
51 55 56 56 45 47 52 55 58 57 58 42 18 7 13 36 42 24 15 7 2 17 25 10 13 21 35 31 18 26 30 12 21 20 8 4 10 22 10 2 15 32 29 18 22 12 19
47 52 55 57 58 47 47 51 54 56 40 25 14 7 17 4 10 14 12 5 6 11 30 38 13 32 29 25 21 27 26 20 16 14 14 12 14 15 5 12 2 21 25 28 31 30 25
45 47 53 56 55 54 48 47 51 53 41 15 20 14 22 36 9 17 11 7 8 28 15 18 19 26 22 32 28 33 34 32 31 25 23 19 13 28 36 14 16 19 21 23 24 24 22
45 45 47 50 54 55 55 43 43 43 41 17 26 23 17 15 6 4 16 16 17 12 14 23 22 24 15 24 20 22 23 19 31 30 21 18 10 11 21 13 9 16 28 30 25 23 18
47 45 46 48 50 52 49 50 41 36 32 28 32 28 12 13 9 9 11 17 22 16 22 14 11 20 13 23 34 39 35 24 21 18 26 19 16 13 10 10 16 18 13 13 7 18 9
45 47 44 43 48 48 47 46 39 37 40 23 28 19 11 10 19 11 16 2 23 24 31 6 13 23 24 14 22 19 19 15 17 12 9 11 15 5 9 18 3 26 8 4 4 17 6
44 47 42 41 46 48 46 46 42 37 37 22 24 12 15 14 8 23 9 17 15 10 7 10 16 14 6 11 10 15 11 18 14 12 5 11 5 8 10 7 7 21 15 9 3 10 11
43 46 37 42 46 48 45 41 38 36 32 23 26 11 14 18 5 27 7 1 13 2 9 19 15 8 5 10 10 9 10 5 14 19 19 18 12 15 10 7 3 23 11 3 12 10 7
39 43 39 40 45 48 44 38 35 33 26 22 23 15 13 13 20 16 16 13 14 15 7 15 12 6 10 9 8 4 5 8 8 18 23 16 14 13 5 7 11 20 11 7 13 1 10
38 41 41 40 45 46 43 40 33 29 28 24 25 15 16 20 16 12 9 10 8 11 15 2 2 7 18 4 3 5 6 7 9 11 10 10 10 10 10 4 17 11 16 10 7 13 18
Wind_Direction_500mb
339 341 338 336 333 331 330 331 329 330 326 324 322 320 319 319 315 306 291 288 289 300 302 300 292 291 294 239 247 272 288 283 228 199 200 202 214 216 214 222 224 219 224 223 231 262 269
347 333 329 328 327 329 328 327 327 325 322 326 326 322 320 315 314 308 296 285 285 299 302 296 279 273 241 255 243 231 256 240 207 195 198 201 210 216 216 221 221 219 228 245 208 228 266
355 350 349 346 341 333 327 325 326 327 326 326 326 321 317 316 312 306 297 284 285 298 298 289 263 242 249 240 223 230 274 225 192 189 198 202 201 211 219 217 219 222 219 238 220 229 249
351 350 349 346 340 335 331 329 329 328 328 329 325 320 316 316 312 306 298 290 291 294 291 271 233 226 259 253 244 248 239 203 186 191 198 201 204 214 216 210 219 218 236 220 212 214 212
336 337 337 335 334 331 331 331 334 334 337 334 331 325 322 316 312 306 299 299 303 301 266 208 175 220 260 233 220 209 196 189 178 187 200 198 207 229 211 215 189 218 214 216 230 166 184
325 327 328 327 325 324 327 329 330 332 335 332 334 329 323 317 311 305 298 302 315 10 135 155 223 243 250 225 183 176 179 178 172 174 195 206 200 217 216 209 212 210 221 237 221 162 207
328 325 326 325 325 324 323 324 326 325 328 330 328 329 323 315 305 301 299 307 222 198 204 208 202 230 141 131 164 169 164 158 168 173 186 188 214 207 201 211 219 220 217 222 218 178 198
329 325 325 326 322 322 323 322 324 325 321 321 325 324 324 316 308 294 266 228 254 322 270 229 234 231 255 165 165 165 160 163 176 182 184 185 215 201 212 222 223 246 209 219 161 217 192
339 333 326 322 320 321 322 321 321 321 325 318 324 323 321 318 312 289 244 238 245 306 260 221 212 220 207 196 178 165 174 174 183 190 197 195 198 216 214 211 219 223 230 216 206 197 198
342 340 335 329 323 318 319 319 319 323 322 316 324 324 319 320 320 281 260 255 227 254 266 167 191 211 213 194 180 176 180 171 196 197 198 209 209 203 204 216 217 213 213 226 207 188 213
344 343 341 338 335 329 322 320 320 321 320 322 324 322 318 312 272 255 306 195 172 189 232 153 166 183 185 197 156 179 190 186 190 208 197 208 215 190 212 211 201 234 194 225 225 200 243
349 344 342 342 340 336 331 327 325 326 325 324 322 320 313 311 277 199 238 144 142 233 229 154 154 174 165 205 164 169 191 204 204 201 205 215 194 202 205 210 192 229 157 205 215 232 221
349 344 345 344 343 340 337 330 326 328 327 327 323 319 296 267 272 174 172 150 207 248 155 153 172 177 177 190 178 171 188 198 197 201 192 218 196 200 213 205 187 218 204 196 195 218 233
349 346 346 344 343 343 345 345 337 335 329 331 326 316 279 244 186 175 149 211 233 181 268 162 179 183 186 186 178 174 188 194 218 206 184 198 184 203 189 224 195 207 215 234 190 198 213
350 351 349 350 350 347 346 345 343 338 334 335 331 337 223 169 174 163 184 215 258 336 284 278 189 189 193 181 168 186 194 203 201 201 213 198 197 172 198 220 202 194 228 246 311 279 268
351 352 352 354 352 349 347 345 342 338 336 342 331 301 237 186 171 187 233 248 213 257 341 291 232 195 189 182 176 188 194 200 193 206 234 201 152 166 183 237 238 279 207 216 230 271 233
350 351 351 355 349 349 345 343 343 342 337 342 327 236 182 176 173 193 226 237 259 154 173 247 280 228 207 193 188 194 193 184 202 185 229 238 190 197 164 211 206 211 243 212 252 216 225
351 351 350 347 345 342 344 345 345 344 341 353 299 238 176 167 193 216 231 197 323 200 180 207 290 275 232 196 204 206 197 150 207 179 197 219 221 181 200 200 265 289 209 222 223 248 269
350 351 351 345 343 343 340 342 344 349 350 341 293 262 188 178 227 231 228 151 139 229 229 181 277 253 231 190 202 198 94 65 154 217 201 187 227 168 208 181 219 238 225 271 292 267 255
350 350 350 348 336 339 342 343 346 349 352 339 289 258 182 204 242 276 223 202 345 228 255 219 261 288 201 169 156 181 146 149 174 208 26 247 229 232 234 349 252 210 232 237 254 226 247
347 348 350 348 348 332 333 341 347 347 358 339 280 329 340 234 268 303 196 146 353 248 220 215 234 238 176 178 178 200 165 157 160 160 197 195 224 261 79 239 139 200 209 221 228 231 231
345 349 348 347 346 348 332 332 343 351 5 1 334 352 336 295 319 293 261 153 162 260 249 193 241 201 216 192 186 171 156 166 178 177 181 204 182 238 184 178 247 249 244 243 224 233 243
341 342 345 348 348 349 348 333 338 350 1 343 344 329 301 279 201 174 265 169 175 231 296 243 281 141 185 263 270 165 127 155 167 172 179 191 175 212 242 136 264 254 235 231 232 235 246
339 340 341 343 346 349 345 344 327 339 348 328 328 325 290 297 305 317 294 164 171 246 277 311 215 134 127 116 114 111 120 175 153 167 172 194 199 172 181 151 225 89 64 29 299 242 210
343 340 341 341 341 341 346 345 340 334 337 316 319 313 304 298 296 5 357 286 166 230 227 33 32 107 145 135 125 120 129 122 118 133 175 206 197 197 226 199 14 153 115 57 266 148 122
340 339 338 338 338 340 343 346 337 332 333 314 308 288 288 284 349 342 355 334 307 121 202 127 109 117 170 207 187 193 170 161 156 157 195 202 169 170 214 248 226 81 98 67 351 153 55
339 342 339 338 339 337 340 342 336 333 326 317 302 293 298 285 349 3 28 358 328 212 287 132 136 139 230 204 192 212 128 81 149 166 184 173 172 185 207 217 0 110 111 268 238 94 61
335 337 333 333 335 336 337 337 334 331 330 312 307 295 311 291 302 12 18 58 315 312 282 109 159 181 200 219 169 107 147 191 161 132 163 175 162 201 160 182 244 114 155 283 67 311 341
327 333 331 328 335 337 338 337 330 330 336 314 305 315 284 269 266 353 30 25 5 317 333 270 92 36 24 151 287 131 162 147 176 144 186 181 167 181 167 177 101 120 67 70 340 316 314
Wind_Speed_850mb
27 26 28 29 32 37 39 37 39 43 46 44 36 32 32 29 28 26 25 24 26 26 25 24 20 21 9 19 42 24 26 17 30 62 61 57 56 72 55 54 60 51 32 59 62 22 33
23 25 28 31 33 33 36 37 40 46 43 37 35 36 33 31 29 27 26 25 26 26 27 27 21 19 15 34 16 18 18 24 41 66 62 74 56 62 61 60 41 39 41 38 43 45 25
28 28 28 29 29 32 36 39 41 42 38 36 34 36 36 32 30 28 28 28 26 27 30 27 21 12 29 49 11 13 7 24 44 65 63 69 62 54 60 51 54 51 41 44 42 35 27
33 33 33 32 32 34 35 37 37 38 36 36 37 36 34 35 32 30 28 29 26 28 31 22 15 12 23 10 25 25 24 24 40 50 54 56 66 59 69 38 59 39 32 36 41 37 20
36 37 36 36 36 37 38 38 38 38 37 37 38 36 37 34 33 31 25 26 25 26 19 15 9 13 21 11 30 24 25 33 47 47 53 44 59 46 66 37 34 38 40 48 33 36 19
40 41 41 40 40 41 42 40 39 38 38 39 41 41 40 35 35 30 21 19 15 13 15 14 11 12 30 33 30 36 27 31 54 50 45 42 36 38 37 35 38 42 46 37 43 31 30
39 41 43 42 43 42 42 40 39 39 39 40 41 42 43 40 31 33 24 11 7 9 29 27 27 22 19 16 32 35 32 43 52 55 39 46 32 45 58 52 46 47 46 49 26 32 37
41 42 42 40 42 42 42 42 40 43 41 37 42 42 46 36 42 39 26 23 23 12 24 53 44 35 18 24 33 33 49 43 49 44 43 36 43 43 40 37 43 44 24 41 13 24 33
45 44 44 45 46 45 43 44 44 43 44 39 42 42 43 48 45 39 36 42 26 16 18 30 52 46 27 31 37 44 54 40 45 47 48 38 44 40 40 43 40 37 31 30 29 37 38
47 46 45 45 45 46 46 48 48 45 46 42 44 45 42 50 25 12 25 26 39 8 12 28 39 27 43 36 35 51 53 33 31 45 48 37 38 48 40 44 39 31 28 39 26 29 27
49 48 47 48 46 45 46 46 50 50 50 47 46 46 50 42 25 18 11 9 19 16 13 46 44 32 44 50 48 51 52 37 39 34 31 34 37 46 39 37 34 40 40 30 22 28 27
52 50 48 49 50 50 45 45 50 53 52 53 50 51 56 32 23 17 11 22 24 13 13 24 30 40 45 52 44 55 56 47 43 36 37 39 41 28 34 38 39 44 10 24 30 29 28
51 50 48 50 51 53 47 47 49 52 52 58 56 54 46 28 6 33 27 29 11 14 16 33 42 48 43 40 40 47 47 41 35 34 33 26 26 30 33 36 29 33 26 19 20 21 23
53 53 50 48 51 55 52 53 52 50 56 58 57 35 23 17 25 35 35 14 17 14 16 23 38 45 42 49 40 47 45 39 40 38 31 28 32 40 22 29 28 41 37 25 21 26 30
57 54 48 49 54 54 54 57 53 59 63 62 51 14 12 30 33 43 25 9 7 9 4 12 37 45 40 46 37 41 46 43 41 37 28 32 31 32 34 34 35 31 37 38 21 19 8
59 55 47 48 51 49 51 56 60 65 67 59 48 20 23 38 42 35 18 8 8 10 11 20 27 42 46 45 37 48 45 47 45 37 37 21 18 30 22 25 26 24 26 18 15 17 22
58 56 50 46 49 50 50 55 59 66 69 46 23 12 15 31 37 32 18 13 17 9 12 6 21 25 33 40 35 43 38 30 39 35 27 20 20 21 28 28 29 24 22 22 21 21 20
55 57 52 42 46 48 52 53 61 68 75 43 18 8 19 41 23 27 25 14 9 9 17 9 13 29 27 39 37 35 32 19 22 27 28 18 18 25 35 33 10 24 37 28 17 24 16
54 58 55 48 45 51 52 54 59 61 70 59 22 16 13 40 16 24 24 12 5 5 13 11 10 22 39 31 25 25 22 12 16 17 30 15 13 18 11 17 18 21 19 12 10 3 19
51 55 56 56 45 47 52 55 58 57 58 42 18 7 13 36 42 24 15 7 2 17 25 10 13 21 35 31 18 26 30 12 21 20 8 4 10 22 10 2 15 32 29 18 22 12 19
47 52 55 57 58 47 47 51 54 56 40 25 14 7 17 4 10 14 12 5 6 11 30 38 13 32 29 25 21 27 26 20 16 14 14 12 14 15 5 12 2 21 25 28 31 30 25
45 47 53 56 55 54 48 47 51 53 41 15 20 14 22 36 9 17 11 7 8 28 15 18 19 26 22 32 28 33 34 32 31 25 23 19 13 28 36 14 16 19 21 23 24 24 22
45 45 47 50 54 55 55 43 43 43 41 17 26 23 17 15 6 4 16 16 17 12 14 23 22 24 15 24 20 22 23 19 31 30 21 18 10 11 21 13 9 16 28 30 25 23 18
47 45 46 48 50 52 49 50 41 36 32 28 32 28 12 13 9 9 11 17 22 16 22 14 11 20 13 23 34 39 35 24 21 18 26 19 16 13 10 10 16 18 13 13 7 18 9
45 47 44 43 48 48 47 46 39 37 40 23 28 19 11 10 19 11 16 2 23 24 31 6 13 23 24 14 22 19 19 15 17 12 9 11 15 5 9 18 3 26 8 4 4 17 6
44 47 42 41 46 48 46 46 42 37 37 22 24 12 15 14 8 23 9 17 15 10 7 10 16 14 6 11 10 15 11 18 14 12 5 11 5 8 10 7 7 21 15 9 3 10 11
43 46 37 42 46 48 45 41 38 36 32 23 26 11 14 18 5 27 7 1 13 2 9 19 15 8 5 10 10 9 10 5 14 19 19 18 12 15 10 7 3 23 11 3 12 10 7
39 43 39 40 45 48 44 38 35 33 26 22 23 15 13 13 20 16 16 13 14 15 7 15 12 6 10 9 8 4 5 8 8 18 23 16 14 13 5 7 11 20 11 7 13 1 10
38 41 41 40 45 46 43 40 33 29 28 24 25 15 16 20 16 12 9 10 8 11 15 2 2 7 18 4 3 5 6 7 9 11 10 10 10 10 10 4 17 11 16 10 7 13 18
Wind_Direction_850mb
339 341 338 336 333 331 330 331 329 330 326 324 322 320 319 319 315 306 291 288 289 300 302 300 292 291 294 239 247 272 288 283 228 199 200 202 214 216 214 222 224 219 224 223 231 262 269
347 333 329 328 327 329 328 327 327 325 322 326 326 322 320 315 314 308 296 285 285 299 302 296 279 273 241 255 243 231 256 240 207 195 198 201 210 216 216 221 221 219 228 245 208 228 266
355 350 349 346 341 333 327 325 326 327 326 326 326 321 317 316 312 306 297 284 285 298 298 289 263 242 249 240 223 230 274 225 192 189 198 202 201 211 219 217 219 222 219 238 220 229 249
351 350 349 346 340 335 331 329 329 328 328 329 325 320 316 316 312 306 298 290 291 294 291 271 233 226 259 253 244 248 239 203 186 191 198 201 204 214 216 210 219 218 236 220 212 214 212
336 337 337 335 334 331 331 331 334 334 337 334 331 325 322 316 312 306 299 299 303 301 266 208 175 220 260 233 220 209 196 189 178 187 200 198 207 229 211 215 189 218 214 216 230 166 184
325 327 328 327 325 324 327 329 330 332 335 332 334 329 323 317 311 305 298 302 315 10 135 155 223 243 250 225 183 176 179 178 172 174 195 206 200 217 216 209 212 210 221 237 221 162 207
328 325 326 325 325 324 323 324 326 325 328 330 328 329 323 315 305 301 299 307 222 198 204 208 202 230 141 131 164 169 164 158 168 173 186 188 214 207 201 211 219 220 217 222 218 178 198
329 325 325 326 322 322 323 322 324 325 321 321 325 324 324 316 308 294 266 228 254 322 270 229 234 231 255 165 165 165 160 163 176 182 184 185 215 201 212 222 223 246 209 219 161 217 192
339 333 326 322 320 321 322 321 321 321 325 318 324 323 321 318 312 289 244 238 245 306 260 221 212 220 207 196 178 165 174 174 183 190 197 195 198 216 214 211 219 223 230 216 206 197 198
342 340 335 329 323 318 319 319 319 323 322 316 324 324 319 320 320 281 260 255 227 254 266 167 191 211 213 194 180 176 180 171 196 197 198 209 209 203 204 216 217 213 213 226 207 188 213
344 343 341 338 335 329 322 320 320 321 320 322 324 322 318 312 272 255 306 195 172 189 232 153 166 183 185 197 156 179 190 186 190 208 197 208 215 190 212 211 201 234 194 225 225 200 243
349 344 342 342 340 336 331 327 325 326 325 324 322 320 313 311 277 199 238 144 142 233 229 154 154 174 165 205 164 169 191 204 204 201 205 215 194 202 205 210 192 229 157 205 215 232 221
349 344 345 344 343 340 337 330 326 328 327 327 323 319 296 267 272 174 172 150 207 248 155 153 172 177 177 190 178 171 188 198 197 201 192 218 196 200 213 205 187 218 204 196 195 218 233
349 346 346 344 343 343 345 345 337 335 329 331 326 316 279 244 186 175 149 211 233 181 268 162 179 183 186 186 178 174 188 194 218 206 184 198 184 203 189 224 195 207 215 234 190 198 213
350 351 349 350 350 347 346 345 343 338 334 335 331 337 223 169 174 163 184 215 258 336 284 278 189 189 193 181 168 186 194 203 201 201 213 198 197 172 198 220 202 194 228 246 311 279 268
351 352 352 354 352 349 347 345 342 338 336 342 331 301 237 186 171 187 233 248 213 257 341 291 232 195 189 182 176 188 194 200 193 206 234 201 152 166 183 237 238 279 207 216 230 271 233
350 351 351 355 349 349 345 343 343 342 337 342 327 236 182 176 173 193 226 237 259 154 173 247 280 228 207 193 188 194 193 184 202 185 229 238 190 197 164 211 206 211 243 212 252 216 225
351 351 350 347 345 342 344 345 345 344 341 353 299 238 176 167 193 216 231 197 323 200 180 207 290 275 232 196 204 206 197 150 207 179 197 219 221 181 200 200 265 289 209 222 223 248 269
350 351 351 345 343 343 340 342 344 349 350 341 293 262 188 178 227 231 228 151 139 229 229 181 277 253 231 190 202 198 94 65 154 217 201 187 227 168 208 181 219 238 225 271 292 267 255
350 350 350 348 336 339 342 343 346 349 352 339 289 258 182 204 242 276 223 202 345 228 255 219 261 288 201 169 156 181 146 149 174 208 26 247 229 232 234 349 252 210 232 237 254 226 247
347 348 350 348 348 332 333 341 347 347 358 339 280 329 340 234 268 303 196 146 353 248 220 215 234 238 176 178 178 200 165 157 160 160 197 195 224 261 79 239 139 200 209 221 228 231 231
345 349 348 347 346 348 332 332 343 351 5 1 334 352 336 295 319 293 261 153 162 260 249 193 241 201 216 192 186 171 156 166 178 177 181 204 182 238 184 178 247 249 244 243 224 233 243
341 342 345 348 348 349 348 333 338 350 1 343 344 329 301 279 201 174 265 169 175 231 296 243 281 141 185 263 270 165 127 155 167 172 179 191 175 212 242 136 264 254 235 231 232 235 246
339 340 341 343 346 349 345 344 327 339 348 328 328 325 290 297 305 317 294 164 171 246 277 311 215 134 127 116 114 111 120 175 153 167 172 194 199 172 181 151 225 89 64 29 299 242 210
343 340 341 341 341 341 346 345 340 334 337 316 319 313 304 298 296 5 357 286 166 230 227 33 32 107 145 135 125 120 129 122 118 133 175 206 197 197 226 199 14 153 115 57 266 148 122
340 339 338 338 338 340 343 346 337 332 333 314 308 288 288 284 349 342 355 334 307 121 202 127 109 117 170 207 187 193 170 161 156 157 195 202 169 170 214 248 226 81 98 67 351 153 55
339 342 339 338 339 337 340 342 336 333 326 317 302 293 298 285 349 3 28 358 328 212 287 132 136 139 230 204 192 212 128 81 149 166 184 173 172 185 207 217 0 110 111 268 238 94 61
335 337 333 333 335 336 337 337 334 331 330 312 307 295 311 291 302 12 18 58 315 312 282 109 159 181 200 219 169 107 147 191 161 132 163 175 162 201 160 182 244 114 155 283 67 311 341
327 333 331 328 335 337 338 337 330 330 336 314 305 315 284 269 266 353 30 25 5 317 333 270 92 36 24 151 287 131 162 147 176 144 186 181 167 181 167 177 101 120 67 70 340 316 314